Tucson, AZ (85745)

4:37 AM MST on April 30, 2017 (GMT -0700)
Sweetwater Preserve East | | Change Station

Elev 2385 ft 32.28 °N, 111.06 °W | Updated 3 hours ago

Clear
Clear
54.2 °F
Feels Like 54.2 °F
N
0.0
Wind Variable Wind from NW
Gusts 1.0 mph

Today
High -- | Low -- °F
--% Chance of Precip.
Yesterday
High -- | Low -- °F
Precip. -- in
Pressure 30.01 in
Visibility 10.0 miles
Clouds Clear
Dew Point 20 °F
Humidity 26%
Rainfall 0.00 in
Snow Depth Not available.
5:38 AM 7:04 PM
Waxing Crescent, 22% visible
METAR KDMA 301058Z AUTO 16007KT 10SM CLR 10/M09 A3008 RMK AO2 SLP162 T01001091 CHINO RWY30 $
Pressure 30.01 in
Visibility 10.0 miles
Clouds Clear
Dew Point 20 °F
Humidity 26%
Rainfall 0.00 in
Snow Depth Not available.
5:38 AM 7:04 PM
Waxing Crescent, 22% visible
METAR KDMA 301058Z AUTO 16007KT 10SM CLR 10/M09 A3008 RMK AO2 SLP162 T01001091 CHINO RWY30 $

Get Severe Weather Alerts

Thanks for signing up!

Be on the lookout for a verification email in your inbox.

You'll start receiving the daily forecast at 8 AM.

×

10-Day Weather Forecast

Almanac

Astronomy

Apr. 30, 2017 Rise Set
Actual Time
Civil Twilight
Nautical Twilight
Astronomical Twilight
Moon
Length of Visible Light
Length of Day
Tomorrow will be .
, % of the Moon is Illuminated

Today's Extremes

State Highs State Lows

Community

WunderPhotos

WunderBlog® & News

Nearby

Air Quality

  Air Quality AQ Index Pollutant
Not available.

Snow Depth

Station Depth Elevation

Earthquake Activity

City Distance Mag. Time & Date
Minimum magnitude displayed is 2.5.

Coastal Water Temperatures

Place Temperature

Stations

Nearby Weather Stations

Station Location Temp. Windchill Dew Point Humidity Wind Precip. Elev Updated Type
                   

Watches & Warnings

There are currently no watches in effect.